Hoquiam, WA
on Thursday, January 10, 2013

Thursday
Previous Day Next Day
Daily Summary
 ActualAverageRecord
Temperature
Mean Temperature °F 42°F  
Max Temperature 42°F 47°F 57°F (1981)
Min Temperature 30°F 38°F 23°F (1963)
Degree Days
Heating Degree Days 29 23  
Month to date heating degree days 230  
Cooling Degree Days 0 0  
Month to date cooling degree days 0  
Year to date cooling degree days 0  
Moisture
Dew Point 34°F   
Average Humidity 92    
Maximum Humidity 100    
Minimum Humidity 79    
Precipitation
Precipitation 0.05 in 0.35 in 1.45 in (2009)
Month to date precipitation 3.51  
Year to date precipitation 3.51  
Wind
Wind Speed 5 mph   
Max Wind Speed 12 mph   
Max Gust Speed mph   
Visibility 9 miles   
Events Rain   

Key: T is trace of precipitation, MM is missing value
Source: NWS Daily Summary
Time(PST)TemperatureDew PointHumidity Pressure Visibility Wind DirectionWind SpeedGust SpeedPrecipitationEvents Conditions
12:30 AM 35.6°F 33.8°F 93% 29.95 in 8.0 miles East 5.8 mph - 0.00 in Rain Light Rain
12:53 AM 37.9°F 35.1°F 89% 29.96 in 10.0 miles SSE 11.5 mph - 0.02 in Rain Light Rain
1:09 AM 37.4°F 35.6°F 93% 29.95 in 10.0 miles SSE 11.5 mph - 0.00 in   Overcast
1:48 AM 37.4°F 35.6°F 93% 29.97 in 10.0 miles SSE 6.9 mph - 0.00 in   Overcast
1:53 AM 37.0°F 35.1°F 93% 29.98 in 10.0 miles SE 5.8 mph - 0.00 in   Overcast
2:53 AM 36.0°F 35.1°F 97% 29.99 in 10.0 miles ENE 4.6 mph - 0.03 in   Overcast
3:02 AM 35.6°F 35.6°F 100% 29.97 in 10.0 miles ENE 4.6 mph - N/A   Overcast
3:10 AM 35.6°F 35.6°F 100% 29.97 in 10.0 miles ENE 4.6 mph - N/A   Overcast
3:32 AM 35.6°F 33.8°F 93% 29.97 in 10.0 miles East 3.5 mph - N/A   Mostly Cloudy
3:53 AM 36.0°F 35.1°F 97% 29.99 in 10.0 miles Calm Calm - N/A   Mostly Cloudy
4:49 AM 35.6°F 33.8°F 93% 29.98 in 10.0 miles NE 6.9 mph - N/A   Overcast
4:53 AM 36.0°F 34.0°F 93% 29.99 in 10.0 miles NE 5.8 mph - N/A   Overcast
5:53 AM 35.1°F 34.0°F 96% 30.01 in 9.0 miles NE 4.6 mph - N/A   Overcast
6:36 AM 35.6°F 33.8°F 93% 30.02 in 7.0 miles NE 4.6 mph - N/A   Overcast
6:53 AM 36.0°F 34.0°F 93% 30.04 in 8.0 miles NNE 3.5 mph - N/A   Overcast
7:53 AM 36.0°F 34.0°F 93% 30.06 in 10.0 miles NE 5.8 mph - N/A   Overcast
8:39 AM 35.6°F 35.6°F 100% 30.07 in 8.0 miles ENE 4.6 mph - N/A   Overcast
8:53 AM 36.0°F 35.1°F 97% 30.09 in 10.0 miles ENE 5.8 mph - N/A   Overcast
9:53 AM 37.0°F 36.0°F 96% 30.09 in 10.0 miles ENE 4.6 mph - N/A   Mostly Cloudy
10:00 AM 37.4°F 35.6°F 93% 30.08 in 10.0 miles East 4.6 mph - N/A   Overcast
10:31 AM 39.2°F 35.6°F 87% 30.10 in 10.0 miles North 4.6 mph - N/A   Scattered Clouds
10:53 AM 39.9°F 35.1°F 83% 30.11 in 10.0 miles Calm Calm - N/A   Mostly Cloudy
11:02 AM 39.2°F 35.6°F 87% 30.10 in 10.0 miles North 3.5 mph - N/A   Mostly Cloudy
11:53 AM 39.0°F 35.1°F 86% 30.10 in 10.0 miles West 4.6 mph - N/A   Overcast
12:33 PM 39.2°F 35.6°F 87% 30.08 in 10.0 miles WSW 3.5 mph - N/A   Mostly Cloudy
12:53 PM 39.9°F 36.0°F 86% 30.09 in 10.0 miles West 4.6 mph - N/A   Mostly Cloudy
1:53 PM 41.0°F 35.1°F 79% 30.09 in 10.0 miles NNW 3.5 mph - N/A   Overcast
2:53 PM 41.0°F 36.0°F 82% 30.10 in 10.0 miles SW 8.1 mph - N/A   Mostly Cloudy
3:09 PM 41.0°F 35.6°F 81% 30.08 in 10.0 miles SW 6.9 mph - N/A   Overcast
3:53 PM 42.1°F 36.0°F 79% 30.10 in 10.0 miles West 6.9 mph - N/A   Overcast
4:53 PM 39.9°F 36.0°F 86% 30.09 in 10.0 miles West 3.5 mph - 0.00 in   Scattered Clouds
5:53 PM 39.0°F 36.0°F 89% 30.09 in 10.0 miles Calm Calm - N/A   Mostly Cloudy
6:53 PM 36.0°F 35.1°F 97% 30.10 in 10.0 miles Calm Calm - N/A   Clear
7:53 PM 35.1°F 33.1°F 92% 30.11 in 9.0 miles NNE 3.5 mph - N/A   Clear
8:48 PM 33.8°F 32.0°F 93% 30.10 in 6.0 miles NE 5.8 mph - N/A   Scattered Clouds
8:53 PM 33.1°F 32.0°F 96% 30.11 in 4.0 miles NNE 5.8 mph - N/A   Mostly Cloudy
9:50 PM 33.8°F 32.0°F 93% 30.11 in 9.0 miles ENE 3.5 mph - N/A   Overcast
9:53 PM 33.1°F 32.0°F 96% 30.12 in 8.0 miles Calm Calm - N/A   Overcast
10:03 PM 33.8°F 33.8°F 100% 30.11 in 7.0 miles Calm Calm - N/A   Overcast
10:12 PM 33.8°F 32.0°F 93% 30.11 in 9.0 miles NNW 3.5 mph - N/A   Overcast
10:19 PM 33.8°F 32.0°F 93% 30.11 in 10.0 miles Calm Calm - N/A   Overcast
10:30 PM 33.8°F 33.8°F 100% 30.11 in 10.0 miles Calm Calm - N/A   Mostly Cloudy
10:50 PM 32.0°F 30.2°F 93% 30.12 in 10.0 miles Calm Calm - N/A   Scattered Clouds
10:53 PM 32.0°F 30.9°F 96% 30.13 in 10.0 miles Calm Calm - N/A   Scattered Clouds
11:01 PM 32.0°F 30.2°F 93% 30.12 in 10.0 miles Calm Calm - N/A   Mostly Cloudy
11:28 PM 30.2°F 30.2°F 100% 30.12 in 9.0 miles Calm Calm - N/A   Partly Cloudy
11:53 PM 30.9°F 30.0°F 96% 30.14 in 10.0 miles Calm Calm - N/A   Clear
Moon Phase
Jan. 10 Jan. 11 Jan. 18 Jan. 26 Feb. 03
Sunrise:07:59 AM (PST) Moon Rise:06:44 AM (PST)1/10
Sunset:04:47 PM (PST) Moon Set:04:03 PM (PST)1/10

Copyright © 2014 The Weather Underground, Inc.